Location: Wharf Road Observatory
(44.7802°N, 65.6070°W)
Time: 12:43:32
(UTC-04:00)

Envisat - Visible Passes

Search period start: 24 February 2024 00:00
Search period end: 05 March 2024 00:00
Orbit: 762 x 764 km, 98.3° (Epoch: 24 February)

Date Brightness Start Highest point End Pass type
(mag) Time Alt. Az. Time Alt. Az. Time Alt. Az.
24 Feb 5.3 03:30:32 10° NNE 03:32:00 19° NNE 03:32:00 19° NNE visible
24 Feb 4.7 05:10:16 10° NNW 05:12:10 18° NNW 05:12:10 18° NNW visible
25 Feb 5.9 02:53:53 10° NE 02:54:24 12° NE 02:54:24 12° NE visible
25 Feb 4.5 04:32:19 10° N 04:34:34 25° NNW 04:34:34 25° NNW visible
26 Feb 4.7 03:54:50 10° NNE 03:56:59 26° NNE 03:56:59 26° NNE visible
26 Feb 4.9 05:35:36 10° NNW 05:37:09 13° NW 05:37:09 13° NW visible
27 Feb 5.3 03:17:46 10° NNE 03:19:23 19° NE 03:19:23 19° NE visible
27 Feb 4.5 04:57:05 10° N 04:59:33 22° NNW 04:59:33 22° NNW visible
28 Feb 5.9 02:41:26 10° NE 02:41:48 11° NE 02:41:48 11° NE visible
28 Feb 4.3 04:19:19 10° N 04:21:57 30° N 04:21:57 30° N visible
29 Feb 4.7 03:41:58 10° NNE 03:44:22 28° NNE 03:44:22 28° NNE visible
29 Feb 4.6 05:22:08 10° NNW 05:24:32 17° NW 05:24:32 17° NW visible
01 Mar 5.4 03:05:06 10° NNE 03:06:46 19° NE 03:06:46 19° NE visible
01 Mar 4.2 04:43:58 10° N 04:46:57 28° NNW 04:46:57 28° NNW visible
02 Mar 4.1 04:06:21 10° N 04:09:21 36° N 04:09:21 36° N visible
02 Mar 4.9 05:48:01 10° NW 05:49:31 11° NW 05:49:31 11° NW visible
03 Mar 4.7 03:29:09 10° NNE 03:31:45 29° NE 03:31:45 29° NE visible
03 Mar 4.4 05:08:51 10° NNW 05:11:56 22° NW 05:11:56 22° NW visible
04 Mar 5.5 02:52:30 10° NE 02:54:10 17° NE 02:54:10 17° NE visible
04 Mar 3.8 04:30:54 10° N 04:34:20 36° NNW 04:34:20 36° NNW visible
